Retour au catalogue

TITAN 3C TRANSTAGE DEB

LostMEO
NORAD 38701·DEBRIS·🇺🇸 United States

Lancé Sep 26, 1968 depuis Cape Canaveral Space Force Station

Loading…

Prochains Passages (prochaines 24 heures)

TLE

PériméSource: Space-Track

Époque: Jun 19, 2026, 14:15 UTC

1 38701U 68081AB  26170.59413718 -.00000341  00000-0  00000-0 0  9995
2 38701   2.3882  51.2277 0163603 280.9651  76.8657  1.01159279 19721

Suivez TITAN 3C TRANSTAGE DEB en temps réel avec AllMySat

Download on the App Store